TimeMDT,TemperatureF,Dew PointF,Humidity,Sea Level PressureIn,VisibilityMPH,Wind Direction,Wind SpeedMPH,Gust SpeedMPH,PrecipitationIn,Events,Conditions,WindDirDegrees,DateUTC
12:53 AM,69.1,53.1,57,29.99,10.0,East,5.8,-,N/A,,Mostly Cloudy,90,2013-09-02 06:53:00
1:53 AM,68.0,53.1,59,29.97,10.0,East,8.1,-,N/A,,Scattered Clouds,80,2013-09-02 07:53:00
2:53 AM,66.0,54.0,65,29.98,10.0,Calm,Calm,-,N/A,,Partly Cloudy,0,2013-09-02 08:53:00
3:53 AM,64.0,54.0,70,29.98,10.0,NW,3.5,-,N/A,,Clear,320,2013-09-02 09:53:00
4:53 AM,61.0,54.0,78,30.00,10.0,NNE,4.6,-,N/A,,Clear,30,2013-09-02 10:53:00
5:53 AM,63.0,53.1,70,30.00,10.0,Calm,Calm,-,N/A,,Clear,0,2013-09-02 11:53:00
6:53 AM,57.9,53.1,84,30.04,10.0,Calm,Calm,-,N/A,,Clear,0,2013-09-02 12:53:00
7:53 AM,64.0,53.1,67,30.05,10.0,Calm,Calm,-,N/A,,Clear,0,2013-09-02 13:53:00
8:53 AM,71.1,55.9,59,30.05,10.0,Calm,Calm,-,N/A,,Clear,0,2013-09-02 14:53:00
9:53 AM,77.0,51.1,40,30.05,10.0,Calm,Calm,-,N/A,,Clear,0,2013-09-02 15:53:00
10:53 AM,78.1,51.1,39,30.01,10.0,Calm,Calm,-,N/A,,Clear,0,2013-09-02 16:53:00
11:53 AM,82.0,53.1,37,30.01,10.0,SW,10.4,-,N/A,,Clear,220,2013-09-02 17:53:00
12:53 PM,82.9,52.0,34,29.99,10.0,Variable,6.9,-,N/A,,Clear,0,2013-09-02 18:53:00
1:53 PM,84.9,50.0,30,29.96,10.0,SW,10.4,-,N/A,,Clear,220,2013-09-02 19:53:00
2:53 PM,86.0,48.9,28,29.94,10.0,WSW,9.2,-,N/A,,Clear,250,2013-09-02 20:53:00
3:53 PM,87.1,48.0,26,29.91,10.0,SW,9.2,-,N/A,,Clear,230,2013-09-02 21:53:00
4:53 PM,86.0,48.9,28,29.90,10.0,SSW,4.6,-,N/A,,Clear,210,2013-09-02 22:53:00
5:53 PM,84.9,48.0,28,29.89,10.0,South,4.6,-,N/A,,Clear,180,2013-09-02 23:53:00
6:53 PM,82.9,46.9,28,29.91,10.0,South,4.6,-,N/A,,Clear,190,2013-09-03 00:53:00
7:53 PM,75.0,50.0,41,29.92,10.0,Calm,Calm,-,N/A,,Clear,0,2013-09-03 01:53:00
8:53 PM,70.0,53.1,55,29.94,10.0,NE,3.5,-,N/A,,Clear,40,2013-09-03 02:53:00
9:53 PM,66.9,51.1,57,29.95,10.0,East,5.8,-,N/A,,Clear,80,2013-09-03 03:53:00
10:53 PM,64.0,52.0,65,29.96,10.0,ENE,6.9,-,N/A,,Clear,60,2013-09-03 04:53:00
11:53 PM,63.0,51.1,65,29.96,10.0,Calm,Calm,-,N/A,,Clear,0,2013-09-03 05:53:00